This is the latest recevied weather packets stored in our database for station/object HK6RM-20. If no packets are shown the sender has not sent any weather packets the latest 10 day(s).
| Time | Temp. | Humidity | Pressure | Rain* | Wind** | Luminosity | Snow |
|---|---|---|---|---|---|---|---|
| 1777347033 | 18.89° C | 96% | 1017 hPa | 1.27 mm | - | - | - |
| 1777346253 | 19.44° C | 96% | 1017 hPa | 1.27 mm | - | - | - |
| 1777345472 | 20° C | 96% | 1017 hPa | 1.52 mm | - | - | - |
| 1777344691 | 20.56° C | 96% | 1016 hPa | 2.03 mm | - | - | - |
| 1777343911 | 21.11° C | 96% | 1016 hPa | 1.78 mm | - | - | - |
| 1777343130 | 21.67° C | 96% | 1016 hPa | 1.02 mm | - | - | - |
| 1777342350 | 22.22° C | 96% | 1015 hPa | 1.27 mm | - | - | - |
| 1777341567 | 22.78° C | 96% | 1015 hPa | 0.25 mm | - | - | - |
| 1777340786 | 23.33° C | 96% | 1015 hPa | 0 mm | - | - | - |
| 1777340006 | 19.44° C | 93% | 1015 hPa | 0 mm | - | - | - |
| 1777339225 | 20° C | 93% | 1015 hPa | 0 mm | - | - | - |
| 1777338445 | 20.56° C | 93% | 1015 hPa | 0 mm | - | - | - |
| 1777337664 | 21.11° C | 93% | 1014 hPa | 0 mm | - | - | - |
| 1777336882 | 21.67° C | 93% | 1014 hPa | 0 mm | - | - | - |
| 1777336100 | 22.22° C | 93% | 1014 hPa | 0 mm | - | - | - |
| 1777335319 | 22.78° C | 93% | 1013 hPa | 0 mm | - | - | - |
| 1777334539 | 23.33° C | 93% | 1013 hPa | 0 mm | - | - | - |
| 1777333757 | 23.89° C | 93% | 1013 hPa | 0 mm | - | - | - |
| 1777332977 | 24.44° C | 93% | 1013 hPa | 0 mm | - | - | - |
| 1777332194 | 20.56° C | 82% | 1012 hPa | 0 mm | - | - | - |
| 1777331413 | 21.11° C | 82% | 1012 hPa | 0 mm | - | - | - |
| 1777330631 | 21.67° C | 82% | 1011 hPa | 0 mm | - | - | - |
| 1777329851 | 22.22° C | 82% | 1011 hPa | 0 mm | - | - | - |
| 1777329071 | 22.78° C | 82% | 1011 hPa | 0 mm | - | - | - |
| 1777328290 | 23.33° C | 82% | 1011 hPa | 0 mm | - | - | - |
* Rain latest hour (hover to see other rain measurements)
** Current wind speed in m/s (hover to see current wind gust speed)